Theta_e
320 319 319 318 316 313 313 318 319 318 318 316 313 313 314 313 312 311 310 308 310 314 315 313 313 313 314 314 315 317 318 318 315 313 311 312 312 311 310 308 307 307
320 319 318 317 316 315 315 317 317 316 316 313 310 312 313 313 312 311 310 308 308 310 309 307 306 306 306 306 307 310 313 312 310 308 309 309 309 307 305 303 303 303
321 319 319 317 317 316 315 314 315 315 315 312 309 311 313 312 312 311 310 309 309 309 308 305 304 303 303 303 303 304 305 305 305 306 308 307 306 304 303 303 303 303
320 319 318 318 318 317 315 314 315 315 315 313 310 310 311 311 312 311 311 311 311 310 310 308 306 304 303 302 302 302 302 302 304 306 307 306 305 305 305 305 305 305
319 319 318 318 319 317 314 315 316 316 316 314 311 310 311 310 311 312 311 312 312 311 311 311 310 307 304 303 303 303 302 302 304 305 305 307 307 307 306 305 305 307
318 318 318 318 319 316 312 313 316 316 317 315 311 310 310 309 310 311 312 312 312 312 312 312 312 311 308 305 304 305 304 303 304 304 304 305 307 307 307 305 304 305
317 317 317 319 319 315 311 312 315 316 318 316 312 310 310 309 309 310 311 312 312 312 312 312 313 313 311 308 306 306 307 306 305 305 305 305 305 306 307 307 306 305
317 316 317 319 319 315 312 313 315 317 318 318 314 312 312 310 309 310 312 313 312 312 312 313 312 312 312 310 308 308 308 308 307 306 306 305 305 305 306 307 307 307
317 318 319 319 319 315 310 312 317 318 319 318 315 314 314 313 311 311 311 313 313 312 312 312 312 312 312 311 310 310 310 310 309 308 307 306 305 305 305 306 307 307
317 318 319 319 319 317 312 313 318 319 319 318 316 315 315 315 314 312 311 312 312 312 311 311 311 312 312 311 311 311 312 311 311 310 309 308 308 308 307 307 306 307
318 318 318 318 319 318 316 316 318 319 319 318 317 317 316 315 315 314 314 313 313 313 313 312 311 311 311 312 312 312 312 312 311 311 311 310 310 310 310 309 309 308
319 318 319 319 319 319 319 318 319 318 318 318 318 317 317 316 316 316 315 315 315 315 315 315 314 312 311 311 311 312 312 312 312 311 311 311 311 310 311 311 310 310
319 319 319 319 319 320 320 319 319 319 318 318 318 318 318 318 317 317 317 316 316 316 316 316 316 315 314 313 313 312 312 312 312 312 311 311 311 311 311 311 311 311
319 319 319 320 319 319 319 320 320 319 319 319 318 318 318 318 318 318 318 317 317 317 317 317 317 317 316 316 315 315 314 314 314 313 312 312 313 312 312 312 313 313
319 319 319 320 321 320 320 320 320 320 319 317 317 318 319 318 317 317 317 317 318 317 317 317 317 317 317 317 316 316 315 315 316 315 315 315 317 316 315 315 316 316
319 319 320 320 321 321 320 320 320 320 318 316 316 317 317 317 317 317 316 317 318 317 318 318 317 317 317 317 317 317 317 317 317 317 316 317 318 318 318 317 317 318
320 320 321 320 320 320 320 320 320 320 319 318 317 317 317 317 316 316 316 317 318 318 317 317 317 317 317 317 317 317 317 317 317 317 317 317 318 318 318 318 318 318
320 320 320 320 320 320 320 319 319 319 319 318 318 317 317 317 317 316 316 317 318 318 316 316 316 317 317 318 319 318 318 318 318 319 319 319 319 319 319 319 318 318
319 319 319 320 319 320 320 319 319 319 319 318 318 318 318 318 318 318 317 318 318 317 316 317 317 317 318 319 319 319 319 319 319 319 320 320 320 319 319 318 317 316
319 319 318 319 319 319 319 319 319 319 318 318 318 318 318 318 318 318 318 318 318 317 318 318 317 318 319 318 317 316 317 317 317 317 318 319 319 319 318 318 316 315
316 317 318 318 318 318 318 318 318 319 318 318 318 318 318 318 318 318 318 317 318 318 318 318 319 319 318 315 314 314 313 313 313 315 316 317 318 317 317 316 314 313
312 314 316 318 318 318 318 317 316 316 316 316 317 317 317 317 318 318 318 318 318 319 319 320 320 318 315 314 314 314 312 311 312 314 315 315 315 314 313 313 311 310
310 312 314 315 316 316 316 313 311 311 311 312 314 315 316 316 316 315 316 316 317 317 318 319 319 316 314 314 315 314 312 311 312 314 314 313 312 311 310 309 309 307
309 309 311 312 313 313 312 310 308 309 309 310 311 313 314 314 314 314 314 314 314 314 315 316 316 315 314 314 314 313 312 312 312 313 312 311 310 308 307 306 305 304
307 308 309 310 310 309 309 308 308 308 308 308 308 309 311 312 312 313 312 312 312 312 313 314 314 313 313 313 313 313 312 311 312 312 310 309 307 305 304 303 303 302
306 307 308 308 309 308 307 307 307 307 307 307 307 307 308 309 309 308 308 307 307 307 307 310 312 313 313 313 312 312 311 311 311 311 310 308 306 305 304 303 302 301
Wind_Speed
8 12 13 12 12 11 11 12 10 7 6 5 5 6 7 6 6 4 2 3 5 7 7 7 6 6 7 7 7 7 7 7 8 9 9 11 11 11 12 11 10 11
9 13 15 15 14 12 11 11 8 7 6 5 5 7 7 7 6 4 3 4 6 7 7 7 7 7 7 7 7 8 8 8 9 9 9 11 11 11 12 13 13 13
10 16 18 17 16 13 11 10 8 7 6 5 5 6 7 7 6 5 4 5 6 6 7 7 7 8 8 8 8 8 8 9 10 10 11 12 12 13 15 15 15 15
15 19 19 18 17 13 9 9 10 9 7 7 6 6 7 8 7 6 6 5 5 5 5 5 6 6 7 7 8 8 9 10 11 11 12 13 12 13 15 15 16 16
17 20 19 19 19 13 8 8 11 11 9 8 7 6 7 8 8 8 6 6 5 4 4 3 4 4 5 7 7 8 9 10 11 11 11 13 12 12 14 14 14 15
20 21 20 20 20 15 11 11 13 13 12 10 8 8 8 8 9 9 8 7 7 6 5 4 3 3 4 5 6 6 7 9 10 10 11 12 12 12 12 12 12 13
23 23 22 22 21 18 16 16 15 15 15 12 10 9 8 8 9 9 9 8 8 8 6 6 6 5 4 4 4 4 5 7 8 8 8 9 10 10 10 9 10 11
25 24 24 23 22 22 22 19 17 17 16 14 12 10 9 8 9 9 9 8 9 9 9 8 7 7 7 6 5 5 4 5 6 6 6 7 7 8 8 8 7 7
25 25 24 23 24 25 23 20 17 17 17 15 14 11 10 10 10 11 11 10 9 10 11 11 10 10 9 9 8 7 6 5 5 5 5 5 6 6 6 6 6 5
25 24 23 23 25 24 21 19 17 17 17 15 14 11 9 9 10 11 12 12 11 11 11 12 13 12 12 11 10 10 9 8 7 6 6 5 5 5 5 6 6 5
24 21 20 22 24 22 19 17 17 18 18 17 15 12 9 8 8 8 9 10 11 12 12 12 13 14 14 12 12 11 12 12 11 10 8 7 7 6 6 6 6 6
23 20 18 20 23 22 19 17 17 18 18 17 15 12 10 10 9 9 8 10 11 12 14 14 13 14 15 14 13 12 12 15 16 15 12 11 10 9 9 9 9 8
23 19 17 18 20 21 20 19 19 19 18 16 14 11 9 9 9 10 11 13 14 15 16 17 16 15 14 15 14 13 13 16 20 20 17 14 13 12 11 11 11 11
21 18 16 16 17 18 19 20 20 20 18 17 15 14 14 13 11 11 13 15 17 18 18 19 18 16 16 16 15 14 15 16 20 23 22 17 15 15 14 13 13 13
19 17 16 16 16 18 19 19 21 21 20 21 20 19 19 17 14 12 13 16 19 20 20 20 19 19 19 19 17 18 19 19 19 22 23 20 18 18 18 17 16 16
19 18 18 18 18 19 19 19 21 23 23 24 24 23 21 20 17 14 15 18 21 21 21 22 21 22 23 21 20 19 20 19 19 20 21 19 18 19 19 18 18 18
19 19 19 19 19 19 19 19 20 22 21 21 22 22 23 22 20 18 19 22 21 19 18 20 22 23 23 20 18 18 18 18 18 18 18 17 16 16 17 17 17 18
17 18 18 18 19 18 18 19 19 19 18 18 19 20 21 21 20 20 21 22 19 16 16 19 22 21 19 17 16 15 15 16 16 16 15 13 13 14 14 14 15 15
15 16 17 17 17 17 17 17 17 15 15 16 17 17 18 19 18 18 18 18 17 15 16 19 20 18 15 12 10 9 10 11 12 12 11 10 11 11 12 12 13 13
12 14 16 16 16 15 15 15 14 13 13 14 14 15 16 16 16 16 16 17 17 16 17 17 16 14 11 8 5 5 5 6 7 7 8 8 8 9 9 10 10 11
6 8 9 11 13 13 12 10 8 7 8 9 11 12 13 13 12 13 14 14 14 14 13 12 11 10 8 6 4 2 2 3 4 5 5 4 5 5 6 6 6 6
5 5 5 6 7 8 7 6 5 5 5 6 7 8 9 9 8 9 10 10 11 11 10 9 9 8 7 5 4 2 0 2 2 2 1 1 1 1 2 2 2 2
7 6 6 6 6 7 7 7 6 6 7 7 8 9 9 9 8 8 7 7 6 7 6 7 7 7 6 5 4 2 1 2 2 1 1 2 2 2 2 2 2 1
7 7 7 9 9 9 9 9 8 8 8 8 8 9 10 10 9 9 8 7 5 5 5 5 6 6 5 5 4 2 1 2 3 2 3 3 3 4 4 4 5 5
6 6 8 11 12 11 11 10 10 10 10 10 10 10 11 11 10 10 9 7 6 4 3 4 5 5 5 4 4 3 2 2 3 4 5 5 5 6 7 7 8 8
7 6 8 11 13 12 11 11 11 11 11 10 10 11 12 12 11 11 10 8 6 4 3 1 1 2 3 3 3 2 2 3 3 4 5 6 6 6 7 7 8 7
Wind_Direction
205 222 226 233 228 219 219 218 209 203 210 210 193 179 173 174 173 166 156 146 152 156 159 160 158 159 156 154 157 154 149 142 129 125 125 121 118 113 110 108 109 110
204 223 228 233 230 223 219 219 220 222 221 216 197 184 184 186 181 176 173 156 148 147 149 147 145 144 141 143 152 154 156 151 138 136 134 125 122 118 114 113 112 112
213 224 226 230 229 226 221 215 219 228 226 219 204 194 197 201 194 187 184 170 155 146 143 137 136 138 135 134 138 142 147 143 137 137 132 126 123 118 113 113 113 112
215 220 222 223 223 226 230 221 216 221 226 219 211 207 207 209 209 202 194 190 180 161 148 140 139 140 139 140 140 140 140 136 136 138 132 127 124 116 112 113 112 111
212 222 222 217 217 219 224 228 225 225 227 220 217 221 220 216 215 212 208 208 207 196 180 163 153 148 148 152 149 143 141 136 136 139 133 128 125 118 113 115 114 113
209 225 226 215 215 213 204 216 231 233 230 225 223 225 227 223 219 217 218 222 223 222 222 222 210 189 172 171 165 152 144 138 136 138 134 129 128 126 120 118 117 117
208 220 224 213 212 214 209 212 224 230 231 230 228 230 235 234 226 222 223 229 232 235 239 242 239 233 222 209 202 185 161 150 144 141 137 131 130 131 131 129 122 118
209 214 218 211 210 217 220 220 221 223 229 232 230 232 241 244 238 230 229 234 237 239 242 244 244 240 237 235 230 223 205 182 168 159 153 147 141 138 139 143 137 123
211 213 215 212 212 217 223 228 227 222 225 230 230 228 231 236 240 237 234 237 241 243 243 242 239 237 239 242 242 242 239 223 205 195 185 175 167 160 156 160 161 150
214 217 217 216 219 221 224 230 233 227 225 229 232 231 228 228 236 241 242 243 244 247 249 246 244 240 240 245 250 255 257 252 244 234 227 221 210 197 187 183 182 179
218 220 219 220 224 228 228 229 232 229 226 227 231 232 229 225 226 235 246 254 256 259 258 255 253 249 248 249 253 261 267 267 263 256 253 251 244 243 237 224 217 210
218 218 217 220 227 231 232 231 231 228 224 223 224 225 228 234 236 238 252 266 271 274 273 269 264 258 257 258 258 265 275 281 277 267 262 263 258 256 257 254 250 243
216 215 215 220 227 231 233 233 230 226 223 218 215 220 234 246 249 254 267 271 268 271 276 276 271 266 268 270 269 271 277 286 287 279 270 267 267 264 263 263 262 259
213 215 219 222 226 230 232 232 230 227 228 229 229 233 241 249 256 263 271 270 265 266 270 274 275 278 284 285 279 275 273 278 284 282 275 270 271 272 268 267 271 270
213 218 224 227 228 228 228 229 229 227 231 240 244 241 239 243 250 256 262 265 266 265 263 265 271 279 285 284 277 274 274 274 277 277 274 272 274 275 271 270 275 275
217 222 225 228 231 232 231 230 230 228 230 238 240 237 236 237 237 241 251 259 261 260 262 263 264 269 275 277 273 271 273 274 274 273 271 272 273 273 271 270 272 272
215 219 222 225 229 232 233 232 231 230 231 233 231 229 233 234 232 232 240 248 252 255 264 268 264 264 271 275 272 269 268 268 268 268 266 266 266 267 270 271 273 276
209 212 215 219 224 227 229 229 229 229 229 230 228 227 228 229 225 223 228 239 247 249 251 254 255 260 269 271 268 265 264 262 260 260 260 260 261 262 265 268 271 274
213 213 214 217 220 222 221 221 223 224 222 225 226 225 225 223 219 218 222 230 239 244 245 246 250 258 263 260 255 253 254 254 254 256 258 258 259 261 263 266 268 269
223 226 225 224 222 223 223 224 227 228 227 229 231 229 229 225 222 224 227 229 234 244 252 252 250 248 240 226 221 230 245 254 258 262 263 261 261 264 268 273 276 277
233 231 230 227 225 228 230 226 225 224 222 224 226 228 230 229 227 228 231 233 238 243 246 241 231 220 208 192 184 192 236 277 281 281 277 269 267 270 275 281 287 290
266 246 232 216 207 209 206 191 174 166 169 178 187 198 208 210 208 210 214 220 226 227 224 215 204 198 196 190 180 173 10 349 320 303 299 266 262 276 291 298 308 301
272 255 237 220 206 195 181 167 155 145 143 150 160 167 171 169 166 166 169 175 186 193 193 192 194 200 205 198 182 171 25 27 37 35 71 84 80 76 73 80 97 112
280 257 231 215 206 193 179 169 163 156 150 147 150 151 151 151 152 148 143 141 144 151 164 183 199 208 207 198 180 157 79 63 90 109 112 113 111 109 113 119 121 124
316 273 235 213 200 191 189 186 177 168 160 153 156 157 151 149 151 147 140 137 135 139 164 193 208 208 198 189 174 153 127 112 120 131 136 140 139 132 131 132 131 129
323 294 252 226 212 202 195 189 179 171 165 159 159 160 155 148 146 142 133 123 111 98 80 62 244 218 198 189 178 159 144 139 138 143 148 151 152 148 142 139 137 135